| time (UTC) | temp C | wind direction | speed KPH | gust KPH | rain 1hr cm | rain 24hr cm | rain mn cm | humidity % | barometer mb |
| 20260906044039 | 20 | 152 | 1.6 | 1.6 | 0.00 | 0.51 | 0.00 | 99 | 1012.9 |
| 20260906043028 | 21 | 152 | 0.0 | 0.0 | 0.00 | 0.51 | 0.00 | 99 | 1012.9 |
| 20260906042027 | 21 | 152 | 0.0 | 0.0 | 0.00 | 0.51 | 0.00 | 99 | 1013.0 |
| 20260906041029 | 21 | 152 | 0.0 | 0.0 | 0.00 | 0.51 | 0.00 | 99 | 1013.0 |
| 20260906040030 | 21 | 152 | 0.0 | 0.0 | 0.00 | 0.51 | 0.51 | 99 | 1013.3 |
| 20260906035527 | 21 | 152 | 0.0 | 0.0 | 0.00 | 0.51 | 0.51 | 99 | 1013.2 |
| 20260906034529 | 21 | 152 | 1.6 | 1.6 | 0.00 | 0.51 | 0.51 | 99 | 1013.2 |
| 20260906033528 | 21 | 152 | 0.0 | 0.0 | 0.00 | 0.51 | 0.51 | 99 | 1013.3 |
| 20260906032529 | 21 | 152 | 0.0 | 0.0 | 0.00 | 0.51 | 0.51 | 99 | 1013.1 |
| 20260906031528 | 21 | 152 | 0.0 | 0.0 | 0.00 | 0.51 | 0.51 | 99 | 1013.2 |
| 20260906030528 | 21 | 152 | 0.0 | 0.0 | 0.00 | 0.51 | 0.51 | 99 | 1013.4 |
| 20260906025527 | 21 | 152 | 0.0 | 0.0 | 0.00 | 0.51 | 0.51 | 99 | 1013.0 |
| 20260906024529 | 21 | 152 | 0.0 | 0.0 | 0.00 | 0.51 | 0.51 | 99 | 1012.9 |
| 20260906023539 | 21 | 152 | 0.0 | 0.0 | 0.00 | 0.51 | 0.51 | 99 | 1012.9 |
| 20260906022527 | 21 | 152 | 0.0 | 0.0 | 0.00 | 0.51 | 0.51 | 99 | 1012.8 |
| 20260906021527 | 21 | 152 | 0.0 | 0.0 | 0.00 | 0.51 | 0.51 | 99 | 1012.6 |
| 20260906020527 | 21 | 152 | 0.0 | 0.0 | 0.00 | 0.51 | 0.51 | 99 | 1012.8 |
| 20260906015529 | 21 | 152 | 0.0 | 0.0 | 0.00 | 0.51 | 0.51 | 99 | 1012.6 |
| 20260906014527 | 22 | 152 | 0.0 | 0.0 | 0.00 | 0.51 | 0.51 | 99 | 1012.7 |
| 20260906013529 | 22 | 152 | 0.0 | 0.0 | 0.00 | 0.51 | 0.51 | 98 | 1012.6 |
| 20260906012533 | 22 | 152 | 0.0 | 0.0 | 0.00 | 0.51 | 0.51 | 98 | 1012.8 |
| 20260906012028 | 22 | 152 | 0.0 | 0.0 | 0.00 | 0.51 | 0.51 | 98 | 1012.8 |
| 20260906011031 | 22 | 152 | 0.0 | 0.0 | 0.00 | 0.51 | 0.51 | 98 | 1012.4 |
| 20260906010030 | 22 | 152 | 0.0 | 0.0 | 0.00 | 0.51 | 0.51 | 97 | 1012.2 |
| 20260906005027 | 22 | 152 | 0.0 | 0.0 | 0.00 | 0.51 | 0.51 | 97 | 1012.3 |
| 20260906004030 | 23 | 152 | 0.0 | 0.0 | 0.00 | 0.51 | 0.51 | 95 | 1012.3 |
| 20260906003032 | 23 | 152 | 0.0 | 0.0 | 0.00 | 0.51 | 0.51 | 95 | 1012.3 |
| 20260906002030 | 23 | 152 | 3.2 | 1.6 | 0.00 | 0.51 | 0.51 | 96 | 1012.1 |
| 20260906001034 | 23 | 152 | 0.0 | 0.0 | 0.00 | 0.51 | 0.51 | 96 | 1012.0 |
| 20260906000032 | 23 | 152 | 0.0 | 0.0 | 0.00 | 0.51 | 0.51 | 95 | 1012.0 |
| 20260905235030 | 23 | 152 | 0.0 | 0.0 | 0.00 | 0.51 | 0.51 | 95 | 1011.6 |
| 20260905234027 | 24 | 152 | 0.0 | 0.0 | 0.00 | 0.51 | 0.51 | 94 | 1011.6 |
| 20260905233029 | 24 | 152 | 0.0 | 0.0 | 0.51 | 0.51 | 0.51 | 92 | 1011.4 |
| 20260905232027 | 25 | 152 | 0.0 | 0.0 | 0.51 | 0.51 | 0.51 | 91 | 1011.3 |
| 20260905231029 | 25 | 152 | 0.0 | 0.0 | 0.51 | 0.51 | 0.51 | 84 | 1011.7 |
| 20260905230030 | 26 | 152 | 0.0 | 0.0 | 0.51 | 0.51 | 0.51 | 86 | 1011.7 |
| 20260905225527 | 26 | 152 | 0.0 | 0.0 | 0.51 | 0.51 | 0.51 | 84 | 1011.6 |
| 20260905224531 | 27 | 152 | 0.0 | 0.0 | 0.51 | 0.51 | 0.51 | 79 | 1011.8 |
| 20260905223530 | 28 | 153 | 0.0 | 0.0 | 0.51 | 0.51 | 0.51 | 76 | 1011.6 |
| 20260905182538 | 29 | 351 | 14.5 | 17.7 | 0.00 | 0.00 | 0.00 | 58 | 1012.3 |
| 20260905181540 | 31 | 353 | 6.4 | 4.8 | 0.00 | 0.00 | 0.00 | 49 | 1012.6 |
| 20260905180527 | 35 | 0 | 3.2 | 3.2 | 0.00 | 0.00 | 0.00 | 44 | 1012.5 |
| 20260905175529 | 36 | 22 | 3.2 | 4.8 | 0.00 | 0.00 | 0.00 | 44 | 1012.3 |
| 20260905174531 | 35 | 274 | 0.0 | 0.0 | 0.00 | 0.00 | 0.00 | 47 | 1012.8 |
| 20260905173530 | 36 | 214 | 3.2 | 3.2 | 0.00 | 0.00 | 0.00 | 41 | 1013.0 |
| 20260905172540 | 36 | 148 | 3.2 | 6.4 | 0.00 | 0.00 | 0.00 | 41 | 1013.2 |
| 20260905172027 | 35 | 353 | 3.2 | 1.6 | 0.00 | 0.00 | 0.00 | 44 | 1013.1 |
| 20260905171029 | 35 | 211 | 0.0 | 0.0 | 0.00 | 0.00 | 0.00 | 46 | 1013.4 |
| 20260905170030 | 35 | 120 | 3.2 | 3.2 | 0.00 | 0.00 | 0.00 | 45 | 1013.4 |
| 20260905165027 | 35 | 177 | 1.6 | 1.6 | 0.00 | 0.00 | 0.00 | 48 | 1013.6 |
| 20260905164032 | 35 | 48 | 3.2 | 3.2 | 0.00 | 0.00 | 0.00 | 45 | 1013.9 |
| 20260905163031 | 35 | 344 | 3.2 | 3.2 | 0.00 | 0.00 | 0.00 | 51 | 1013.8 |
| 20260905162029 | 35 | 186 | 0.0 | 0.0 | 0.00 | 0.00 | 0.00 | 47 | 1014.1 |
| 20260905161028 | 35 | 38 | 3.2 | 3.2 | 0.00 | 0.00 | 0.00 | 52 | 1014.1 |
| 20260905160031 | 34 | 145 | 3.2 | 3.2 | 0.00 | 0.00 | 0.00 | 55 | 1014.1 |
| 20260905155039 | 34 | 150 | 4.8 | 4.8 | 0.00 | 0.00 | 0.00 | 57 | 1014.3 |
| 20260905154527 | 33 | 109 | 1.6 | 1.6 | 0.00 | 0.00 | 0.00 | 58 | 1014.3 |
| 20260905153528 | 32 | 148 | 4.8 | 4.8 | 0.00 | 0.00 | 0.00 | 61 | 1014.2 |
| 20260905152527 | 33 | 188 | 3.2 | 3.2 | 0.00 | 0.00 | 0.00 | 58 | 1014.0 |
| 20260905151528 | 32 | 166 | 1.6 | 1.6 | 0.00 | 0.00 | 0.00 | 61 | 1014.0 |
| 20260905150532 | 32 | 157 | 0.0 | 0.0 | 0.00 | 0.00 | 0.00 | 66 | 1014.3 |
| 20260905145531 | 31 | 154 | 6.4 | 6.4 | 0.00 | 0.00 | 0.00 | 66 | 1014.2 |
| 20260905145028 | 31 | 143 | 3.2 | 3.2 | 0.00 | 0.00 | 0.00 | 67 | 1014.1 |
| 20260905144030 | 31 | 145 | 4.8 | 6.4 | 0.00 | 0.00 | 0.00 | 70 | 1014.3 |
| 20260905143032 | 30 | 168 | 1.6 | 1.6 | 0.00 | 0.00 | 0.00 | 69 | 1014.5 |
| 20260905142029 | 30 | 132 | 3.2 | 3.2 | 0.00 | 0.00 | 0.00 | 71 | 1014.3 |
| 20260905141031 | 30 | 149 | 3.2 | 3.2 | 0.00 | 0.00 | 0.00 | 74 | 1014.3 |
| 20260905140029 | 29 | 72 | 1.6 | 1.6 | 0.00 | 0.00 | 0.00 | 76 | 1014.6 |
| 20260905135028 | 28 | 157 | 1.6 | 1.6 | 0.00 | 0.00 | 0.00 | 78 | 1014.2 |
| 20260905134038 | 28 | 139 | 1.6 | 1.6 | 0.00 | 0.00 | 0.00 | 79 | 1014.4 |
| 20260905133030 | 27 | 98 | 1.6 | 1.6 | 0.00 | 0.00 | 0.00 | 79 | 1014.3 |
| 20260905132527 | 27 | 147 | 1.6 | 1.6 | 0.00 | 0.00 | 0.00 | 82 | 1014.1 |
| 20260905131527 | 26 | 147 | 1.6 | 1.6 | 0.00 | 0.00 | 0.00 | 83 | 1014.6 |
| 20260905130536 | 26 | 148 | 1.6 | 1.6 | 0.00 | 0.00 | 0.00 | 86 | 1014.5 |
| 20260905125529 | 25 | 163 | 1.6 | 1.6 | 0.00 | 0.00 | 0.00 | 88 | 1014.6 |
| 20260905125027 | 25 | 164 | 1.6 | 1.6 | 0.00 | 0.00 | 0.00 | 89 | 1014.6 |
| 20260905124039 | 24 | 164 | 0.0 | 0.0 | 0.00 | 0.00 | 0.00 | 92 | 1014.5 |
| 20260905123027 | 23 | 164 | 1.6 | 1.6 | 0.00 | 0.00 | 0.00 | 96 | 1014.7 |
| 20260905122028 | 23 | 164 | 0.0 | 0.0 | 0.00 | 0.00 | 0.00 | 95 | 1014.5 |
| 20260905121037 | 22 | 164 | 1.6 | 1.6 | 0.00 | 0.00 | 0.00 | 98 | 1014.5 |
| 20260905120028 | 22 | 164 | 0.0 | 0.0 | 0.00 | 0.00 | 0.00 | 98 | 1014.7 |
| 20260905115028 | 21 | 164 | 0.0 | 0.0 | 0.00 | 0.00 | 0.00 | 99 | 1014.5 |
| 20260905114029 | 21 | 164 | 0.0 | 0.0 | 0.00 | 0.00 | 0.00 | 99 | 1014.1 |
| 20260905113039 | 21 | 164 | 0.0 | 0.0 | 0.00 | 0.00 | 0.00 | 98 | 1014.2 |
| 20260905112028 | 21 | 164 | 0.0 | 0.0 | 0.00 | 0.00 | 0.00 | 98 | 1013.8 |
| 20260905111030 | 21 | 164 | 1.6 | 1.6 | 0.00 | 0.00 | 0.00 | 99 | 1013.7 |
| 20260905110029 | 21 | 164 | 0.0 | 0.0 | 0.00 | 0.00 | 0.00 | 99 | 1013.4 |
| 20260905105030 | 21 | 164 | 0.0 | 0.0 | 0.00 | 0.00 | 0.00 | 99 | 1013.4 |
| 20260905104030 | 21 | 164 | 0.0 | 0.0 | 0.00 | 0.00 | 0.00 | 99 | 1013.0 |
| 20260905103028 | 21 | 164 | 0.0 | 1.6 | 0.00 | 0.00 | 0.00 | 99 | 1013.5 |
| 20260905102027 | 21 | 164 | 1.6 | 1.6 | 0.00 | 0.00 | 0.00 | 99 | 1013.2 |
| 20260905101039 | 21 | 164 | 0.0 | 0.0 | 0.00 | 0.00 | 0.00 | 99 | 1013.2 |
| 20260905100027 | 21 | 164 | 0.0 | 0.0 | 0.00 | 0.00 | 0.00 | 99 | 1013.3 |
| 20260905095027 | 21 | 164 | 0.0 | 0.0 | 0.00 | 0.00 | 0.00 | 99 | 1013.2 |
| 20260905094028 | 22 | 164 | 0.0 | 0.0 | 0.00 | 0.00 | 0.00 | 99 | 1013.2 |
| 20260905093038 | 21 | 164 | 0.0 | 0.0 | 0.00 | 0.00 | 0.00 | 99 | 1013.2 |
| 20260905092027 | 21 | 164 | 0.0 | 0.0 | 0.00 | 0.00 | 0.00 | 99 | 1013.1 |
| 20260905091028 | 22 | 164 | 0.0 | 0.0 | 0.00 | 0.00 | 0.00 | 99 | 1013.0 |
| 20260905090027 | 22 | 164 | 0.0 | 0.0 | 0.00 | 0.00 | 0.00 | 99 | 1013.2 |
| 20260905085027 | 22 | 164 | 0.0 | 0.0 | 0.00 | 0.00 | 0.00 | 99 | 1013.5 |
| 20260905084028 | 22 | 164 | 0.0 | 0.0 | 0.00 | 0.00 | 0.00 | 98 | 1013.5 |
| 20260905083028 | 22 | 164 | 0.0 | 0.0 | 0.00 | 0.00 | 0.00 | 98 | 1013.6 |
| 20260905082029 | 22 | 164 | 0.0 | 0.0 | 0.00 | 0.00 | 0.00 | 97 | 1013.6 |
| 20260905081034 | 22 | 164 | 3.2 | 3.2 | 0.00 | 0.00 | 0.00 | 98 | 1013.5 |
| 20260905080031 | 22 | 164 | 0.0 | 0.0 | 0.00 | 0.00 | 0.00 | 99 | 1013.6 |
| 20260905075032 | 22 | 164 | 0.0 | 0.0 | 0.00 | 0.00 | 0.00 | 98 | 1013.7 |
| 20260905074029 | 22 | 164 | 0.0 | 0.0 | 0.00 | 0.00 | 0.00 | 98 | 1013.7 |
| 20260905073038 | 22 | 164 | 0.0 | 0.0 | 0.00 | 0.00 | 0.00 | 97 | 1013.7 |
| 20260905072028 | 22 | 164 | 0.0 | 0.0 | 0.00 | 0.00 | 0.00 | 97 | 1014.0 |
| 20260905071028 | 22 | 164 | 0.0 | 0.0 | 0.00 | 0.00 | 0.00 | 97 | 1014.1 |
| 20260905070038 | 22 | 164 | 1.6 | 1.6 | 0.00 | 0.00 | 0.00 | 98 | 1014.0 |
| 20260905065038 | 22 | 164 | 0.0 | 0.0 | 0.00 | 0.00 | 0.00 | 97 | 1014.3 |
| 20260905064038 | 22 | 164 | 0.0 | 0.0 | 0.00 | 0.00 | 0.00 | 98 | 1014.4 |
| 20260905063038 | 22 | 164 | 0.0 | 0.0 | 0.00 | 0.00 | 0.00 | 97 | 1014.6 |
| 20260905062027 | 23 | 164 | 0.0 | 0.0 | 0.00 | 0.00 | 0.00 | 97 | 1014.6 |
| 20260905061028 | 23 | 164 | 0.0 | 0.0 | 0.00 | 0.00 | 0.00 | 98 | 1014.7 |
| 20260905060028 | 23 | 164 | 0.0 | 0.0 | 0.00 | 0.00 | 0.00 | 97 | 1014.8 |
| 20260905055028 | 23 | 164 | 0.0 | 0.0 | 0.00 | 0.00 | 0.00 | 97 | 1015.1 |
| 20260905054028 | 23 | 164 | 0.0 | 0.0 | 0.00 | 0.00 | 0.00 | 97 | 1015.3 |
| 20260905053026 | 23 | 164 | 1.6 | 1.6 | 0.00 | 0.00 | 0.00 | 97 | 1015.0 |
| 20260905052027 | 23 | 164 | 1.6 | 1.6 | 0.00 | 0.00 | 0.00 | 96 | 1015.3 |
| 20260905051038 | 23 | 164 | 0.0 | 0.0 | 0.00 | 0.00 | 0.00 | 96 | 1015.0 |
| 20260905050038 | 23 | 164 | 1.6 | 1.6 | 0.00 | 0.00 | 0.00 | 95 | 1014.9 |
| 20260905045028 | 23 | 164 | 0.0 | 0.0 | 0.00 | 0.00 | 0.00 | 95 | 1015.1 |